Temperature
3 3 3 3 3 3 3 3 3 3 3 3 3 3 3 3 3 3 3 3 3 3 3 3 3 3 3 3 3 3 3 3 3 3 3 3 3 3 3 3 3 3 4
3 3 3 3 3 3 3 3 3 3 3 3 3 3 3 3 3 3 3 3 3 3 3 3 3 3 3 3 3 3 3 3 3 2 2 2 2 2 2 3 3 3 3
3 3 3 3 3 3 3 3 2 2 2 2 2 2 2 2 2 2 2 2 2 2 2 2 2 2 2 3 3 3 3 2 2 2 2 2 2 2 2 2 2 3 3
2 2 2 2 2 2 2 2 2 2 2 2 2 2 2 2 2 2 2 2 2 2 2 2 2 2 2 2 2 2 2 2 2 1 1 1 1 1 1 1 2 2 2
2 2 2 2 2 2 2 2 2 2 2 2 2 1 1 1 1 1 1 1 2 2 1 1 2 1 1 1 2 2 2 1 1 1 1 1 1 1 1 1 1 1 1
2 2 2 2 1 1 2 1 1 1 1 1 1 1 1 1 1 1 1 1 1 1 1 1 1 1 1 1 1 1 1 1 1 1 0 0 0 0 0 0 0 0 0
1 1 1 1 1 1 1 1 1 1 1 1 1 1 1 1 1 0 1 1 1 0 0 0 0 0 0 1 1 1 1 1 1 1 0 0 0 0 0 0 -0 0 -0
1 1 1 1 1 1 1 1 1 1 1 1 0 0 0 0 0 -0 -0 0 0 0 -0 -0 -0 0 0 0 0 0 0 0 0 0 0 0 -0 -0 -0 -0 -0 -0 -0
1 1 1 1 0 0 0 0 0 -0 0 -0 -0 -0 -0 -0 -0 -0 -1 -0 -0 -0 -0 -0 -0 -0 -0 -0 -0 -0 -0 -0 -0 -0 -0 -0 -0 -0 -0 -1 -1 -1 -1
0 0 0 0 -0 -0 -0 -0 -0 -1 -1 -1 -1 -1 -1 -1 -1 -1 -1 -1 -1 -1 -1 -1 -1 -1 -1 -1 -1 -1 -1 -1 -1 -1 -1 -1 -1 -1 -1 -1 -1 -1 -1
-0 -0 -0 -0 -0 -1 -1 -1 -1 -1 -1 -1 -1 -1 -1 -1 -1 -1 -1 -1 -1 -1 -1 -1 -1 -1 -1 -1 -1 -1 -1 -1 -1 -1 -1 -1 -1 -1 -1 -1 -2 -2 -2
-0 -0 -0 -1 -1 -1 -1 -1 -1 -2 -2 -2 -2 -2 -2 -2 -2 -2 -2 -2 -2 -1 -2 -1 -2 -2 -2 -1 -1 -1 -1 -2 -2 -1 -2 -2 -2 -2 -2 -2 -2 -2 -2
-1 -1 -1 -1 -1 -1 -1 -2 -2 -2 -2 -2 -2 -2 -2 -2 -2 -2 -2 -2 -2 -2 -2 -2 -2 -2 -2 -2 -2 -2 -2 -2 -2 -2 -2 -2 -2 -3 -2 -2 -2 -2 -2
-1 -1 -1 -1 -2 -2 -2 -2 -2 -2 -2 -3 -3 -3 -2 -2 -3 -3 -2 -2 -2 -2 -2 -2 -2 -2 -2 -2 -2 -2 -2 -2 -2 -3 -3 -3 -3 -3 -3 -3 -3 -3 -2
-1 -1 -2 -2 -2 -2 -2 -3 -3 -3 -3 -3 -3 -3 -3 -3 -3 -3 -3 -3 -3 -3 -3 -3 -3 -3 -3 -3 -3 -3 -3 -3 -3 -3 -3 -3 -3 -3 -3 -3 -3 -3 -3
-2 -2 -2 -2 -2 -2 -3 -3 -3 -3 -3 -3 -3 -3 -3 -3 -3 -3 -3 -3 -3 -3 -3 -3 -3 -3 -3 -3 -3 -3 -3 -3 -3 -3 -4 -4 -4 -4 -4 -4 -4 -4 -3
-2 -2 -2 -2 -3 -3 -3 -3 -3 -3 -3 -3 -3 -3 -3 -3 -3 -3 -3 -3 -3 -3 -3 -3 -3 -4 -4 -4 -4 -4 -4 -4 -4 -4 -4 -4 -4 -4 -4 -4 -4 -4 -4
-2 -2 -3 -3 -3 -3 -3 -3 -3 -3 -4 -4 -4 -4 -4 -4 -4 -4 -4 -4 -4 -4 -4 -4 -4 -4 -4 -4 -4 -4 -4 -4 -4 -4 -4 -4 -4 -5 -5 -4 -4 -4 -4
-3 -3 -3 -3 -3 -3 -4 -4 -4 -4 -4 -4 -4 -4 -4 -4 -4 -4 -4 -4 -4 -4 -4 -4 -4 -4 -4 -4 -4 -4 -4 -5 -5 -5 -5 -5 -5 -5 -5 -5 -5 -5 -5
-3 -3 -3 -3 -4 -4 -4 -4 -4 -4 -4 -4 -4 -4 -4 -4 -4 -4 -4 -5 -5 -5 -5 -4 -5 -5 -5 -5 -5 -5 -5 -5 -5 -5 -5 -5 -5 -5 -5 -5 -5 -5 -5
-3 -3 -4 -4 -4 -4 -4 -4 -4 -4 -5 -5 -5 -5 -5 -5 -5 -5 -5 -5 -5 -5 -5 -5 -5 -5 -5 -5 -5 -5 -5 -5 -5 -5 -5 -5 -5 -5 -5 -5 -5 -5 -5
-4 -4 -4 -4 -4 -5 -5 -5 -5 -5 -5 -5 -5 -5 -5 -5 -5 -5 -5 -5 -5 -5 -5 -5 -5 -5 -5 -5 -5 -5 -5 -5 -5 -5 -5 -5 -5 -6 -6 -6 -6 -5 -5
-4 -4 -5 -5 -5 -5 -5 -5 -5 -5 -5 -5 -5 -5 -5 -5 -5 -5 -5 -5 -5 -5 -6 -5 -5 -5 -5 -5 -5 -5 -5 -5 -5 -5 -5 -6 -6 -6 -6 -6 -6 -6 -5
-5 -5 -5 -5 -5 -5 -5 -5 -5 -5 -5 -5 -5 -5 -5 -5 -6 -6 -6 -6 -6 -6 -6 -6 -6 -6 -6 -6 -6 -6 -6 -6 -6 -6 -6 -6 -6 -6 -6 -6 -6 -6 -6
-5 -5 -5 -5 -5 -5 -6 -6 -6 -6 -6 -6 -6 -6 -6 -6 -6 -6 -6 -6 -6 -6 -6 -6 -6 -6 -6 -6 -6 -6 -6 -6 -6 -6 -6 -6 -6 -6 -6 -6 -6 -6 -6
-5 -5 -5 -6 -6 -6 -6 -6 -6 -6 -6 -6 -6 -6 -6 -6 -6 -6 -6 -6 -6 -6 -6 -6 -6 -6 -6 -6 -6 -6 -6 -6 -6 -6 -6 -6 -6 -6 -6 -6 -6 -6 -6
Wind_Speed
3 3 3 3 3 3 3 3 4 3 3 4 4 3 3 3 3 3 4 4 4 4 4 4 4 4 3 3 2 2 2 2 2 2 1 1 2 2 4 4 5 4 4
3 2 3 2 2 3 3 3 3 4 4 4 3 3 3 3 3 4 4 4 5 5 4 4 4 3 3 3 2 2 2 2 2 2 2 2 2 2 3 4 4 4 4
2 2 2 2 2 3 3 3 3 3 3 3 3 3 4 4 4 4 4 4 4 4 3 3 3 3 3 2 2 2 2 1 1 1 2 2 2 2 3 4 4 3 5
2 2 2 3 3 3 3 3 3 3 3 3 3 3 4 4 4 4 3 3 3 2 2 2 2 2 3 3 2 2 2 1 1 1 1 1 1 2 2 3 4 3 3
2 2 3 3 2 2 2 2 3 3 3 3 3 3 3 3 3 3 3 2 2 1 1 1 1 2 2 1 1 2 2 2 2 1 1 1 1 2 3 3 3 3 4
2 2 2 2 2 2 2 2 2 2 2 2 3 3 3 3 4 3 2 2 2 2 1 0 0 1 2 2 2 1 1 2 2 2 1 1 2 2 2 2 3 3 3
2 2 2 2 1 2 2 1 2 2 1 2 2 2 2 3 3 2 1 2 2 2 1 1 0 1 1 1 1 2 2 1 0 2 2 2 2 2 2 2 3 3 3
2 2 2 2 2 1 1 1 1 1 0 1 1 1 1 2 2 1 1 2 2 2 2 2 1 1 1 0 1 1 1 1 1 0 1 2 2 2 1 1 1 2 3
2 3 3 2 2 1 2 2 1 1 1 0 0 0 0 2 2 1 1 2 2 1 1 1 1 2 1 1 2 2 1 2 3 3 2 2 2 2 2 2 1 2 3
4 3 3 2 2 2 2 1 1 0 0 0 0 0 0 1 2 1 1 2 2 1 0 0 0 1 0 1 2 2 1 1 2 3 3 4 3 3 4 2 1 1 2
4 3 2 2 2 2 1 0 0 0 0 0 0 0 0 1 1 1 0 1 2 2 1 0 0 1 1 2 2 2 1 2 2 2 2 2 3 3 4 4 3 1 1
2 2 2 2 2 1 0 0 0 1 1 0 0 0 0 1 1 1 1 1 2 2 1 1 1 2 2 3 3 3 4 3 2 2 2 2 3 3 3 4 4 4 2
2 2 2 1 1 0 1 0 0 1 0 0 1 1 0 0 1 1 2 2 2 2 2 3 3 4 4 3 4 5 4 2 2 2 2 2 2 2 3 3 4 5 4
2 1 1 0 0 0 0 0 0 0 0 1 1 1 0 0 1 1 1 1 2 2 2 3 5 5 4 4 4 4 3 2 2 2 2 1 2 2 3 3 3 3 4
1 1 1 0 1 0 0 0 0 1 1 1 1 1 1 1 0 1 1 1 1 2 3 3 2 2 2 2 2 2 2 2 3 2 2 2 2 3 3 3 3 3 3
1 1 0 0 0 1 1 1 2 1 1 2 2 1 1 1 2 2 2 3 3 3 4 3 2 2 2 2 1 2 2 2 2 2 2 1 2 2 2 3 3 3 3
1 1 1 0 1 1 1 1 1 2 2 3 3 2 2 2 2 2 3 3 3 4 3 2 2 1 1 1 1 2 1 1 1 1 1 1 1 2 2 2 2 3 3
1 1 0 1 1 1 1 1 1 1 1 1 2 3 3 3 3 2 3 3 3 2 2 2 2 2 1 1 2 2 2 2 2 1 1 1 1 1 1 2 2 2 3
1 1 0 0 1 1 1 1 1 1 1 1 1 2 3 3 3 3 3 2 2 1 1 2 2 2 1 1 2 2 2 1 1 1 1 1 1 1 1 1 2 3 3
0 1 1 1 1 1 1 1 1 1 1 1 1 1 1 2 2 2 2 2 2 1 1 1 1 1 1 1 2 2 1 1 1 1 0 1 1 1 1 1 1 2 2
0 0 1 1 0 0 1 1 1 1 1 1 1 1 1 1 1 1 1 1 1 1 1 1 1 1 1 1 2 2 1 1 1 0 0 0 1 1 1 1 1 2 2
1 1 0 0 0 0 0 0 1 1 0 1 1 1 1 1 1 1 1 0 0 1 1 1 1 1 1 1 1 2 1 1 1 1 0 0 1 1 1 1 1 2 2
1 1 1 0 0 0 0 0 0 0 0 0 0 0 0 0 0 0 0 0 1 1 1 1 1 1 1 1 1 2 2 2 2 2 1 1 1 1 1 1 1 2 2
1 1 1 0 0 0 0 0 0 0 0 0 0 0 0 1 0 0 0 0 1 1 1 1 1 1 1 1 1 1 2 3 3 3 3 2 1 1 1 1 1 2 2
1 1 1 1 0 0 0 0 0 0 0 0 0 0 0 0 0 0 0 1 1 1 0 0 1 1 1 1 1 1 2 3 3 2 3 2 1 1 1 1 1 2 2
1 1 1 1 1 1 1 1 0 0 0 0 0 0 0 0 0 0 0 1 1 0 0 0 1 1 1 1 1 2 2 2 2 2 2 2 2 1 1 1 1 1 1
Wind_Direction
249 255 259 269 270 259 249 249 248 249 247 254 250 248 248 255 257 248 247 240 236 247 247 240 243 236 243 251 243 234 222 185 224 281 292 313 310 323 336 336 333 332 330
255 253 255 264 268 265 253 250 252 247 247 249 244 248 249 253 256 252 253 250 240 242 242 237 237 230 233 243 231 224 217 196 191 245 286 307 307 314 331 335 343 351 351
269 262 268 269 268 266 258 252 249 244 247 247 239 244 251 255 258 254 250 246 237 235 229 233 233 215 226 235 223 214 213 194 172 199 275 297 308 341 350 343 341 354 358
286 278 275 269 259 259 258 246 247 243 240 236 239 245 252 256 258 255 249 240 235 223 225 228 239 231 224 222 219 206 193 170 159 171 269 300 320 350 357 347 343 349 345
296 291 277 276 276 278 281 258 248 247 244 233 235 249 256 256 255 243 236 228 212 202 221 224 264 280 275 262 243 210 191 181 174 177 228 312 332 350 343 334 333 338 338
281 285 296 294 288 286 287 287 266 253 240 227 235 240 253 265 279 270 246 192 174 172 187 212 281 291 295 312 305 296 228 182 183 192 234 247 281 305 322 322 328 340 335
273 288 298 287 283 291 299 309 288 264 240 229 228 231 254 266 281 285 277 170 163 171 179 199 268 312 322 277 342 24 12 9 232 190 201 234 255 262 276 306 321 333 315
280 288 285 284 281 290 313 305 304 316 260 238 242 229 244 271 285 260 232 144 156 173 185 196 202 244 256 217 107 76 30 5 347 211 198 238 248 255 257 281 294 336 325
278 278 280 276 281 297 289 282 301 340 344 316 280 235 249 294 313 237 158 153 143 155 189 198 201 225 261 94 113 105 59 22 13 12 18 17 13 27 43 62 34 18 343
275 270 271 272 265 269 275 271 307 33 301 332 25 253 238 289 327 329 168 162 150 147 137 211 235 178 51 97 123 129 108 47 38 35 36 35 37 36 31 40 43 15 343
282 279 280 280 271 266 269 285 51 73 49 39 45 2 290 286 333 349 171 163 158 143 128 120 231 112 74 87 93 122 96 70 70 70 59 46 36 27 19 15 7 356 320
298 298 290 290 283 278 159 1 34 78 75 12 7 342 306 285 328 329 71 93 120 138 149 140 102 81 97 89 75 74 75 69 71 74 66 48 33 20 12 8 7 10 4
317 308 295 294 299 262 145 124 59 70 98 306 311 298 299 14 359 34 61 63 71 103 127 113 91 74 73 75 77 74 69 72 77 76 60 37 18 8 11 12 13 20 24
305 302 304 250 311 20 58 144 146 184 177 248 266 245 144 70 74 95 80 68 68 80 90 91 80 79 76 73 67 55 53 65 78 84 65 38 25 21 23 10 5 7 15
317 325 337 321 190 137 357 284 215 221 224 220 202 166 152 159 141 100 117 113 114 121 104 90 85 90 81 73 63 57 58 54 53 58 73 59 39 29 17 7 10 14 19
328 322 305 331 101 118 83 13 351 336 357 49 64 83 68 79 100 86 78 79 88 101 103 99 103 108 104 94 82 64 60 59 56 56 60 60 48 33 20 10 13 22 23
264 277 257 190 132 131 132 111 46 19 29 48 57 62 69 78 85 82 77 80 83 92 98 108 110 107 108 107 105 96 77 65 63 57 54 52 47 34 24 14 13 17 17
307 304 20 145 135 144 158 150 129 107 53 18 27 50 65 71 66 67 80 81 73 73 90 110 119 116 118 123 114 101 94 78 67 59 52 50 50 38 18 7 4 3 3
14 19 21 81 98 113 128 128 121 110 104 75 42 34 46 54 53 51 67 81 103 99 92 99 110 117 114 115 116 111 108 101 85 77 57 31 21 20 7 356 357 355 358
3 356 24 67 77 79 94 110 113 113 110 100 83 55 53 54 58 50 50 70 85 88 93 103 107 111 118 121 122 119 111 107 102 93 76 23 356 342 341 338 345 345 339
123 5 15 41 77 103 105 113 121 120 118 88 57 54 92 93 93 69 59 65 83 111 119 119 116 115 115 121 130 133 129 132 142 149 140 337 344 346 343 340 335 335 334
148 144 127 128 77 129 117 126 128 126 113 91 49 22 40 56 74 89 87 69 95 129 135 136 135 135 146 148 157 160 164 169 178 185 206 252 274 288 309 335 340 337 342
151 152 147 135 132 252 15 72 104 105 82 70 81 70 81 91 85 98 73 74 100 106 136 143 135 129 170 192 204 192 194 209 217 212 213 223 239 258 273 300 320 336 338
162 166 165 156 97 117 113 314 185 174 174 226 248 233 198 168 141 148 136 84 87 92 132 162 169 167 166 203 214 223 223 230 230 221 214 214 225 246 266 290 313 319 323
158 162 164 171 175 180 176 254 267 206 219 258 266 259 233 176 166 151 134 113 110 103 100 189 191 182 190 218 227 234 237 242 241 227 208 193 198 232 252 277 302 315 321
154 162 176 176 176 195 208 220 244 244 225 246 247 235 201 175 182 173 136 118 110 101 111 201 211 207 214 225 237 238 251 257 254 245 194 177 182 216 242 271 286 295 309
Height
1455 1454 1453 1452 1451 1451 1450 1450 1450 1450 1450 1450 1450 1450 1449 1449 1449 1449 1449 1449 1449 1449 1448 1448 1447 1448 1448 1448 1448 1448 1449 1448 1447 1446 1447 1447 1446 1445 1443 1443 1442 1440 1439
1452 1450 1449 1448 1448 1447 1447 1446 1446 1446 1446 1446 1446 1446 1446 1446 1445 1445 1445 1445 1445 1444 1444 1444 1444 1444 1444 1445 1444 1445 1445 1445 1444 1443 1443 1443 1443 1442 1440 1439 1438 1437 1437
1448 1447 1445 1444 1444 1443 1443 1442 1442 1442 1442 1442 1442 1442 1442 1442 1442 1442 1441 1441 1441 1441 1440 1440 1440 1440 1441 1441 1441 1442 1442 1442 1442 1441 1440 1441 1440 1439 1438 1436 1435 1434 1434
1445 1443 1442 1441 1440 1439 1439 1439 1439 1439 1438 1438 1439 1439 1439 1439 1438 1438 1438 1437 1437 1437 1437 1437 1437 1437 1438 1438 1439 1439 1439 1439 1439 1439 1438 1438 1437 1436 1436 1434 1432 1431 1431
1442 1440 1439 1438 1437 1436 1435 1435 1435 1435 1435 1435 1435 1435 1435 1435 1435 1434 1434 1434 1434 1434 1434 1434 1434 1435 1436 1436 1436 1436 1436 1436 1436 1435 1435 1435 1434 1434 1433 1432 1430 1429 1428
1439 1438 1437 1435 1434 1433 1432 1432 1432 1432 1432 1432 1432 1432 1432 1432 1431 1431 1431 1431 1431 1431 1431 1431 1432 1433 1434 1434 1434 1434 1434 1434 1433 1433 1432 1432 1432 1432 1431 1430 1429 1427 1425
1437 1435 1434 1432 1431 1430 1429 1429 1428 1428 1428 1428 1428 1428 1428 1428 1428 1428 1429 1428 1428 1428 1428 1429 1429 1430 1431 1431 1431 1432 1432 1432 1432 1432 1431 1430 1430 1430 1430 1428 1427 1425 1424
1434 1432 1431 1430 1429 1427 1427 1426 1426 1425 1425 1425 1425 1425 1425 1425 1425 1426 1426 1426 1425 1426 1426 1427 1427 1427 1428 1428 1429 1429 1429 1429 1429 1429 1429 1429 1429 1428 1428 1428 1426 1424 1424
1431 1430 1428 1427 1426 1425 1424 1423 1423 1423 1422 1422 1422 1422 1422 1422 1422 1423 1423 1423 1423 1423 1424 1425 1425 1425 1426 1426 1426 1426 1426 1427 1427 1427 1427 1427 1427 1427 1426 1425 1424 1423 1421
1428 1427 1426 1425 1424 1423 1422 1421 1421 1420 1420 1420 1420 1420 1420 1420 1420 1420 1421 1420 1420 1421 1422 1423 1423 1423 1424 1424 1424 1424 1424 1424 1424 1424 1425 1425 1425 1425 1424 1424 1423 1422 1420
1426 1425 1423 1422 1421 1421 1420 1419 1419 1418 1418 1418 1418 1417 1417 1417 1417 1418 1418 1418 1418 1419 1420 1420 1421 1422 1422 1422 1422 1422 1422 1422 1422 1423 1423 1423 1423 1423 1422 1422 1422 1421 1420
1423 1422 1421 1420 1419 1418 1418 1417 1417 1416 1416 1416 1416 1415 1415 1415 1415 1415 1416 1416 1417 1417 1417 1418 1419 1420 1420 1420 1420 1421 1421 1421 1421 1421 1421 1421 1421 1421 1421 1421 1420 1419 1419
1420 1419 1418 1418 1417 1416 1416 1415 1415 1414 1414 1414 1414 1413 1413 1414 1414 1414 1415 1415 1415 1416 1416 1417 1418 1418 1418 1418 1419 1419 1419 1419 1420 1420 1419 1419 1420 1420 1420 1419 1419 1418 1417
1418 1416 1416 1415 1414 1414 1414 1413 1413 1413 1413 1413 1412 1412 1412 1412 1412 1413 1413 1414 1414 1414 1415 1415 1416 1417 1417 1417 1418 1418 1418 1419 1419 1419 1418 1419 1419 1419 1418 1418 1417 1416 1415
1415 1414 1413 1412 1412 1412 1411 1412 1412 1412 1412 1412 1411 1411 1411 1411 1412 1413 1412 1413 1413 1413 1414 1415 1415 1416 1416 1416 1417 1417 1417 1418 1418 1418 1418 1418 1418 1417 1417 1417 1416 1415 1414
1413 1412 1410 1410 1409 1410 1410 1410 1411 1411 1411 1411 1411 1411 1411 1411 1411 1412 1412 1412 1413 1413 1414 1414 1414 1415 1415 1416 1416 1416 1417 1417 1417 1417 1417 1417 1417 1417 1417 1417 1416 1415 1414
1411 1410 1409 1408 1408 1408 1409 1409 1409 1410 1410 1410 1410 1410 1410 1410 1411 1411 1411 1412 1412 1412 1413 1413 1414 1415 1415 1415 1416 1416 1416 1417 1417 1417 1417 1417 1417 1417 1417 1416 1416 1415 1414
1410 1409 1407 1407 1407 1408 1408 1408 1408 1408 1408 1409 1409 1410 1410 1410 1410 1410 1411 1411 1411 1412 1412 1413 1414 1414 1415 1415 1415 1415 1416 1416 1417 1417 1417 1417 1417 1417 1417 1416 1416 1415 1414
1409 1408 1407 1407 1407 1407 1407 1407 1407 1408 1408 1408 1409 1409 1409 1409 1410 1410 1410 1410 1411 1412 1412 1413 1413 1414 1414 1415 1415 1415 1415 1416 1416 1417 1417 1417 1417 1416 1416 1416 1416 1415 1414
1408 1408 1407 1406 1406 1406 1406 1407 1407 1407 1407 1408 1408 1408 1408 1409 1409 1409 1410 1410 1411 1411 1412 1412 1413 1413 1414 1414 1414 1415 1415 1415 1416 1416 1417 1417 1417 1416 1416 1415 1415 1414 1414
1408 1407 1407 1406 1406 1406 1406 1406 1406 1406 1407 1407 1407 1408 1408 1408 1408 1409 1409 1410 1410 1411 1411 1411 1412 1412 1413 1413 1414 1414 1414 1415 1415 1416 1416 1416 1416 1416 1415 1415 1414 1414 1413
1407 1406 1406 1406 1405 1405 1405 1405 1406 1406 1406 1406 1406 1407 1407 1407 1408 1408 1409 1409 1410 1410 1411 1411 1411 1412 1412 1413 1413 1413 1414 1414 1415 1415 1415 1415 1415 1415 1414 1414 1413 1413 1412
1406 1406 1405 1405 1405 1405 1405 1405 1405 1405 1406 1406 1406 1406 1406 1407 1407 1407 1408 1408 1409 1409 1409 1410 1410 1411 1411 1412 1412 1413 1413 1413 1414 1414 1414 1414 1414 1414 1413 1413 1412 1412 1411
1405 1404 1404 1404 1404 1404 1404 1404 1405 1405 1405 1405 1405 1405 1405 1405 1406 1406 1407 1407 1407 1408 1408 1409 1409 1410 1410 1411 1411 1412 1412 1413 1413 1413 1413 1413 1413 1412 1412 1412 1411 1411 1411
1403 1403 1403 1403 1403 1403 1403 1403 1404 1404 1404 1404 1404 1404 1404 1404 1405 1405 1405 1405 1406 1406 1407 1407 1408 1408 1409 1409 1410 1410 1411 1411 1412 1412 1412 1412 1412 1411 1411 1411 1410 1410 1410
1402 1402 1402 1402 1402 1402 1402 1402 1402 1402 1402 1403 1403 1403 1403 1403 1403 1403 1404 1404 1405 1405 1406 1406 1407 1407 1408 1408 1409 1409 1409 1410 1410 1410 1410 1410 1410 1410 1410 1410 1410 1410 1409